Miscellaneous Local Product
Issued by NWS North Platte, NE

Home | Current Version | Previous Version | Text Only | Print | Product List | Glossary On
Versions: 1 2 3 4 5 6 7 8 9 10 11 12 13 14 15 16 17 18 19 20 21 22 23 24 25 26 27 28 29 30 31 32 33 34 35 36 37 38 39 40 41 42 43 44 45 46 47 48 49 50
000
AXUS43 KLBF 292310
MISLBF


WESTERN AND NORTH CENTRAL NEBRASKA HOURLY WEATHER ROUNDUP
NATIONAL WEATHER SERVICE NORTH PLATTE NE
600 PM CDT SAT AUG 29 2015

NOTE: "FAIR" INDICATES FEW OR NO CLOUDS BELOW 12,000 FEET WITH NO
SIGNIFICANT WEATHER AND/OR OBSTRUCTIONS TO VISIBILITY.

NOTE: STATIONS NOT REPORTING VARIABLES SUCH AS SKY/WEATHER OR
PRESSURE ARE PROVIDED BY THE NEBRASKA DEPARTMENT OF
ROADS...RAWS...AND APRS NETWORKS...AND ARE NOT UNDER
NATIONAL WEATHER SERVICE QUALITY CONTROL.

...OBSERVATIONS IN AND NEAR THE EASTERN PANHANDLE OF NEBRASKA...

CITY           SKY/WX    TMP DP  RH WIND       PRES   REMARKS
PINE RIDGE     SUNNY     91  43  18 S10       29.99F
CHADRON        SUNNY     95  43  16 S16       29.97F HAZE    HX  91
ALLIANCE       SUNNY     92  36  14 S9G23     30.05F
SIDNEY         SUNNY     91  37  15 S13G22    30.10F
CRESCENT LAKE    N/A     91  38  16 S9          N/A
BIG SPRINGS      N/A     89  49  24 S7          N/A
$$

...OBSERVATIONS IN NORTH CENTRAL NEBRASKA...

CITY           SKY/WX    TMP DP  RH WIND       PRES   REMARKS
VALENTINE      SUNNY     92  47  21 S10       29.99F
THEDFORD       SUNNY     90  53  28 S10       30.04S
AINSWORTH      SUNNY     87  61  41 S7        30.01F
O`NEILL        SUNNY     84  65  52 S8        30.01F
ORD            SUNNY     85  59  41 SE7       30.01F
BROKEN BOW     SUNNY     86  62  44 S8        30.04F
SPRINGVIEW       N/A     90  63  40 CALM        N/A  HX  91
CHAMBERS         N/A     84  63  49 S5          N/A
EWING            N/A     79  69  70 S3          N/A
$$

...OBSERVATIONS IN SOUTHWEST NEBRASKA AND FAR NORTHEAST COLORADO...

CITY           SKY/WX    TMP DP  RH WIND       PRES   REMARKS
WRAY           FAIR      94  37  13 S10G16    30.08F HX  90
HOLYOKE        FAIR      90  45  20 S9        30.08F
IMPERIAL       SUNNY     93  41  16 SE12      30.06F
OGALLALA       SUNNY     92  42  17 S10       30.05F
NORTH PLATTE   SUNNY     88  56  33 S6        30.04F
MCCOOK         MOSUNNY   91  54  28 SE8       30.04F
LEXINGTON      SUNNY     84  63  47 SE8       30.05F
PAXTON           N/A     88  63  43 SE5         N/A
BRADY            N/A     83  67  58 CALM        N/A
CALLAWAY         N/A     83  72  68 SE6         N/A
$$

...OBSERVATIONS IN CENTRAL LINCOLN COUNTY AREA...

CITY           SKY/WX    TMP DP  RH WIND       PRES   REMARKS
N.P. AIRPORT   SUNNY     88  56  33 S6        30.04F
N.P. DOWNTOWN    N/A     91  57  31 CALM        N/A
N.P. SOUTHEAST   N/A     90  57  32 S3          N/A
$$

...SOME OBSERVATIONS FROM AROUND THE REGION...

CITY           SKY/WX    TMP DP  RH WIND       PRES   REMARKS
DENVER         MOSUNNY   90  37  15 S9        30.13F
LARAMIE        SUNNY     82  24  12 S12       30.25F
CHEYENNE       SUNNY     84  36  18 S12       30.19F
SCOTTSBLUFF    SUNNY     91  45  20 S12       30.03F
RAPID CITY     SUNNY     91  51  25 S10       29.94F
PIERRE         SUNNY     92  62  36 S10       29.88F HX  92
WINNER         FAIR      88  64  44 S9        29.95F
SIOUX FALLS    CLOUDY    74  65  73 S9        30.00F
OMAHA          CLOUDY    72  63  73 CALM      30.03F
GRAND ISLAND   MOSUNNY   80  62  54 SE6       30.05F
KANSAS CITY    PTSUNNY   75  68  78 N8        30.01S
WICHITA        PTSUNNY   74  60  61 N10       30.02F
HAYS           SUNNY     88  52  29 E10       30.04S
LIBERAL        SUNNY     88  46  23 NE9       30.09F
GOODLAND       SUNNY     89  38  16 S9        30.10F
$$



USA.gov is the U.S. government's official web portal to all federal, state and local government web resources and services.